Location: Mountain_View
(35.6670°N, 81.4000°W)
Time: 01:28:40
(UTC-04:00)

Amateur Radio Satellites - All Passes

Search period start: 29 August 2016 00:58
Search period end: 30 August 2016 00:58
Location: Mountain_View, 35.6670°N, 81.4000°W

Satellite Date Start Highest point End Downlink Frequencies (MHz)
Time Altitude Azimuth
ESTCUBE 1 29 Aug 01:02:55 01:06:26 22° 265° (W) 01:09:58 437.505/2401.250
NANOSAT C BR1 29 Aug 01:04:57 01:09:10 88° 104° (ESE) 01:13:20 145.865
AISAT 29 Aug 01:05:02 01:09:09 37° 262° (W) 01:13:19 437.250
TIGRISAT 29 Aug 01:05:52 01:07:40 12° 294° (WNW) 01:09:28 435.000
UKube-1 29 Aug 01:06:38 01:10:56 74° 258° (WSW) 01:15:17 .
PHONESAT 2.4 29 Aug 01:10:59 01:13:39 29° 149° (SSE) 01:16:20 2401.200-2431.200
50 SAT 29 Aug 01:35:23 01:36:59 13° 266° (W) 01:38:37 437.505
BUGSAT 1 29 Aug 01:40:22 01:44:30 87° 103° (ESE) 01:48:33 437.445
QB50P1 29 Aug 01:50:25 01:53:52 25° 290° (WNW) 01:57:18 145.935-145.965
VELOX 1 29 Aug 01:55:15 01:56:43 11° 268° (W) 01:58:12 145.980
ITUPSAT 1 29 Aug 01:56:26 01:58:54 14° 64° (ENE) 02:01:21 437.325
GONETS M04 29 Aug 01:57:25 02:02:55 19° 280° (W) 02:08:26
O/OREOS (USA 219) 29 Aug 01:58:06 01:59:40 12° 262° (W) 02:01:14 437.305
POPSAT HIP 1 29 Aug 02:00:55 02:03:57 20° 291° (WNW) 02:06:59 437.405
SPROUT 29 Aug 02:03:33 02:06:26 17° 266° (W) 02:09:19 437.525
JAS-2 29 Aug 02:03:49 02:10:44 66° 286° (WNW) 02:18:18 435.910
DX 1 29 Aug 02:07:46 02:09:23 12° 268° (W) 02:11:01 434.975-435.025
Cosmos 2499 29 Aug 02:08:24 02:11:52 14° 279° (W) 02:15:23 435.465 / 435.565
TISAT 1 29 Aug 02:16:04 02:20:15 59° 259° (W) 02:24:28 437.305
Gurwin Techsat 1B 29 Aug 02:18:32 02:21:35 15° 92° (E) 02:24:39 435.225
SWISSCUBE 29 Aug 02:26:41 02:30:55 33° 71° (ENE) 02:35:10 437.505
DUCHIFAT 1 29 Aug 02:28:37 02:29:50 11° 295° (WNW) 02:31:03 145.980
Oscar 19 29 Aug 02:35:03 02:40:08 53° 100° (E) 02:45:11 437.125/150
BEESAT 29 Aug 02:43:19 02:47:51 45° 72° (ENE) 02:52:22 436.000
PHONESAT 2.4 29 Aug 02:46:57 02:49:54 51° 344° (NNW) 02:52:51 2401.200-2431.200
RS-15 29 Aug 03:07:04 03:18:15 53° 308° (NW) 03:30:05 29.354- 29.394
ITUPSAT 1 29 Aug 03:31:35 03:36:14 54° 259° (W) 03:40:55 437.325
ITAMSAT 1 29 Aug 03:52:26 03:57:13 37° 98° (E) 04:01:59 435.822/435.867
JAS-2 29 Aug 03:53:24 03:54:41 11° 301° (WNW) 03:56:00 435.910
Gurwin Techsat 1B 29 Aug 03:56:39 04:01:50 56° 287° (WNW) 04:07:01 435.225
AO-7 29 Aug 03:58:35 04:05:01 24° 96° (E) 04:11:24 29.400- 29.500
SWISSCUBE 29 Aug 04:05:09 04:08:44 21° 265° (W) 04:12:20 437.505
KKS-1 29 Aug 04:05:33 04:09:36 35° 72° (ENE) 04:13:42 437.445
Oscar 19 29 Aug 04:15:43 04:18:59 17° 295° (WNW) 04:22:14 437.125/150
MOZHAYETS 4 29 Aug 04:21:18 04:25:49 69° 76° (ENE) 04:30:22
AO-85 29 Aug 04:22:02 04:25:03 15° 108° (ESE) 04:28:02 145.980
BEESAT 29 Aug 04:22:59 04:25:49 16° 267° (W) 04:28:39 436.000
PHONESAT 2.4 29 Aug 04:23:52 04:26:35 30° 1° (N) 04:29:17 2401.200-2431.200
STARS 29 Aug 04:37:24 04:41:30 38° 72° (ENE) 04:45:36 437.465
HORYU 2 29 Aug 05:23:19 05:25:16 13° 93° (E) 05:27:11 437.375
RS-15 29 Aug 05:26:55 05:34:36 19° 338° (NNW) 05:42:30 29.354- 29.394
ITAMSAT 1 29 Aug 05:32:25 05:36:26 23° 293° (WNW) 05:40:28 435.822/435.867
Cosmos 2491 29 Aug 05:34:22 05:42:51 48° 77° (ENE) 05:51:16 435.465 / 435.565
KKS-1 29 Aug 05:43:10 05:46:14 18° 265° (W) 05:49:19 437.445
CUBESAT XI-V 29 Aug 05:45:18 05:49:51 67° 75° (ENE) 05:54:26 437.345
AO-7 29 Aug 05:50:03 05:58:14 64° 291° (WNW) 06:06:21 29.400- 29.500
AO-85 29 Aug 05:59:49 06:05:06 63° 301° (WNW) 06:10:09 145.980
PHONESAT 2.4 29 Aug 06:00:16 06:03:14 57° 17° (NNE) 06:06:10 2401.200-2431.200
STARS 29 Aug 06:15:08 06:17:57 16° 266° (W) 06:20:46 437.465
BRITE-PL 29 Aug 06:18:34 06:23:24 28° 94° (E) 06:28:03 437.365/2234.400
Cubesat XI-IV 29 Aug 06:33:37 06:36:27 14° 92° (E) 06:39:16 437.490
NOAA 15 29 Aug 06:40:06 06:44:15 23° 95° (E) 06:48:23 137.62
YUBILEINY 29 Aug 06:43:23 06:52:03 63° 91° (E) 07:00:43 435.215
CUTE-I 29 Aug 06:44:13 06:47:57 19° 94° (E) 06:51:38 437.470
HORYU 2 29 Aug 06:57:48 07:02:02 48° 287° (WNW) 07:06:16 437.375
DOVE 4 29 Aug 07:24:08 07:27:51 21° 93° (E) 07:31:23 437.250
GOMX 1 29 Aug 07:24:28 07:29:43 53° 99° (E) 07:34:38 467.674
Cosmos 2491 29 Aug 07:31:45 07:39:17 33° 275° (W) 07:46:50 435.465 / 435.565
ISS 29 Aug 07:34:24 07:36:36 17° 128° (SE) 07:38:48 145.825
NOAA 18 29 Aug 07:36:23 07:41:46 54° 101° (ESE) 07:47:04 137.9125
PHONESAT 2.4 29 Aug 07:36:55 07:39:26 25° 212° (SSW) 07:41:56 2401.200-2431.200
STRAND 1 29 Aug 07:42:53 07:47:54 60° 74° (ENE) 07:52:56 437.568
AO-7 29 Aug 07:46:29 07:49:22 12° 311° (NW) 07:52:15 29.400- 29.500
RS-15 29 Aug 07:47:15 07:54:25 17° 16° (NNE) 08:01:34 29.354- 29.394
Cosmos 2504 29 Aug 07:52:26 08:00:48 64° 92° (E) 08:08:37 435.465 / 435.565
BRITE-PL 29 Aug 07:56:40 08:01:48 36° 290° (WNW) 08:06:48 437.365/2234.400
LilacSat-2 29 Aug 08:04:50 08:08:25 43° 286° (WNW) 08:11:59 437.200
HO-68 29 Aug 08:10:22 08:15:19 20° 93° (E) 08:20:12 435.675
Cubesat XI-IV 29 Aug 08:11:37 08:16:51 59° 287° (WNW) 08:22:04 437.490
CANX-2 29 Aug 08:11:37 08:13:35 13° 92° (E) 08:15:34 2200.000
CUTE 1.7 + AOD 2 29 Aug 08:17:24 08:19:22 13° 92° (E) 08:21:21 437.475
NOAA 15 29 Aug 08:19:11 08:24:04 38° 290° (WNW) 08:28:57 137.62
CUTE-I 29 Aug 08:23:06 08:28:09 45° 289° (WNW) 08:33:11 437.470
YUBILEINY 29 Aug 08:42:25 08:49:23 25° 290° (WNW) 08:56:22 435.215
BEESAT 3 29 Aug 08:50:51 08:53:05 15° 109° (ESE) 08:55:18 437.485
SO-50 29 Aug 08:56:03 09:00:35 56° 58° (ENE) 09:04:57 436.795
DOVE 4 29 Aug 09:01:07 09:05:36 34° 289° (WNW) 09:09:51 437.250
GOMX 1 29 Aug 09:03:49 09:07:13 17° 295° (WNW) 09:10:30 467.674
ISS 29 Aug 09:09:45 09:12:50 37° 323° (NW) 09:15:56 145.825
NOAA 18 29 Aug 09:18:21 09:21:55 18° 296° (WNW) 09:25:28 137.9125
SEEDS 29 Aug 09:20:29 09:24:36 52° 100° (E) 09:28:44 437.485
STRAND 1 29 Aug 09:25:04 09:27:25 13° 268° (W) 09:29:46 437.568
CINEMA 3 29 Aug 09:29:25 09:33:50 61° 284° (WNW) 09:38:01 145.822/145.860
UWE-3 29 Aug 09:30:42 09:33:49 20° 95° (E) 09:36:53 435.000/436.395/437.385
PRISM 29 Aug 09:31:35 09:35:40 85° 258° (WSW) 09:39:48 437.425
CUBEBUG 2 29 Aug 09:36:03 09:39:58 37° 98° (E) 09:43:47 437.445
ZACube-1 29 Aug 09:41:45 09:44:27 17° 94° (E) 09:47:07 437.345
CANX-2 29 Aug 09:45:36 09:49:37 43° 287° (WNW) 09:53:39 2200.000
AAUSAT CUBESAT 2 29 Aug 09:46:43 09:50:49 56° 100° (E) 09:54:56 437.432
CUSAT 1 29 Aug 09:47:09 09:52:25 23° 73° (ENE) 09:58:14 437.405
Cosmos 2504 29 Aug 09:48:14 09:54:34 23° 288° (WNW) 10:00:39 435.465 / 435.565
CUTE 1.7 + AOD 2 29 Aug 09:51:22 09:55:23 43° 286° (WNW) 09:59:24 437.475
ANTELSAT 29 Aug 09:53:59 09:56:44 16° 67° (ENE) 09:59:27 437.575/2403.000
HO-68 29 Aug 09:56:23 10:03:28 67° 289° (WNW) 10:10:31 435.675
COMPASS 1 29 Aug 09:56:26 10:00:38 83° 282° (WNW) 10:04:50 437.405
RS-15 29 Aug 10:00:00 10:11:38 44° 48° (NE) 10:23:00 29.354- 29.394
AIST 1 29 Aug 10:05:50 10:10:08 65° 278° (W) 10:14:30
BEESAT 2 29 Aug 10:11:49 10:15:43 69° 117° (ESE) 10:19:40 435.950
TIGRISAT 29 Aug 10:22:56 10:26:59 31° 71° (ENE) 10:30:58 435.000
BEESAT 3 29 Aug 10:26:47 10:30:24 36° 304° (NW) 10:34:04 437.485
SO-50 29 Aug 10:38:39 10:40:28 12° 253° (WSW) 10:42:18 436.795
JUGNU 29 Aug 10:40:33 10:43:08 13° 169° (S) 10:45:42 437.505
Oscar 11 29 Aug 10:44:15 10:48:34 80° 285° (WNW) 10:52:53 145.826/435.025
PCSat 29 Aug 10:51:04 10:54:10 16° 104° (ESE) 10:57:18 145.827
UNISAT 6 29 Aug 10:51:32 10:56:07 71° 76° (ENE) 11:00:38 437.425
FUNcube-1 29 Aug 10:54:14 10:58:20 64° 284° (WNW) 11:02:25 145.935
SEEDS 29 Aug 10:58:25 10:59:49 11° 294° (WNW) 11:01:11 437.485
DANDE 29 Aug 10:59:24 11:04:38 32° 78° (ENE) 11:11:04 436.750
GONETS M04 29 Aug 11:03:13 11:08:16 17° 79° (E) 11:13:20
QB50P1 29 Aug 11:05:57 11:07:48 13° 66° (ENE) 11:09:38 145.935-145.965
UWE-3 29 Aug 11:06:46 11:10:14 26° 289° (WNW) 11:13:40 435.000/436.395/437.385
DELFI C3 29 Aug 11:10:46 11:14:47 85° 104° (ESE) 11:18:48 145.870
CUBEBUG 2 29 Aug 11:13:51 11:16:15 15° 293° (WNW) 11:18:36 437.445
POPSAT HIP 1 29 Aug 11:15:17 11:17:54 16° 67° (ENE) 11:20:31 437.405
ZACube-1 29 Aug 11:17:06 11:20:46 31° 288° (WNW) 11:24:26 437.345
AAUSAT CUBESAT 2 29 Aug 11:25:02 11:25:47 10° 295° (WNW) 11:26:31 437.432
CUSAT 1 29 Aug 11:27:50 11:34:37 65° 265° (W) 11:42:27 437.405
ANTELSAT 29 Aug 11:28:40 11:33:04 43° 261° (W) 11:37:24 437.575/2403.000
DUCHIFAT 1 29 Aug 11:39:43 11:43:18 27° 71° (ENE) 11:46:53 145.980
QB50P2 29 Aug 11:44:37 11:48:34 37° 72° (ENE) 11:52:31 145.880/145.840
M-CUBED/EXP-1 PRIME 29 Aug 11:46:43 11:49:04 15° 97° (E) 11:51:20 437.505
POLYITAN 1 29 Aug 11:47:06 11:51:05 38° 73° (ENE) 11:55:03 437.675
HUMSAT D 29 Aug 11:47:16 11:51:22 77° 283° (WNW) 11:55:27 437.325/437.525
HO-68 29 Aug 11:48:25 11:49:50 11° 307° (NW) 11:51:15 435.675
BEESAT 2 29 Aug 11:53:07 11:53:59 11° 314° (NW) 11:54:52 435.950
NANOSAT C BR1 29 Aug 11:53:55 11:57:57 42° 73° (ENE) 12:01:59 145.865
TIGRISAT 29 Aug 12:00:08 12:03:38 21° 265° (W) 12:07:07 435.000
CUBEBUG 1 29 Aug 12:07:20 12:09:54 15° 93° (E) 12:12:26 437.445
VELOX 1 29 Aug 12:10:33 12:12:32 13° 92° (E) 12:14:32 145.980
RS-15 29 Aug 12:12:35 12:24:31 58° 249° (WSW) 12:36:08 29.354- 29.394
JAS-2 29 Aug 12:14:30 12:19:12 36° 69° (ENE) 12:24:12 435.910
DX 1 29 Aug 12:22:27 12:23:32 11° 92° (E) 12:24:37 434.975-435.025
SRMSAT 29 Aug 12:23:08 12:23:30 10° 165° (SSE) 12:23:51 437.500
BUGSAT 1 29 Aug 12:26:51 12:30:49 39° 73° (ENE) 12:34:47 437.445
JUGNU 29 Aug 12:27:41 12:31:23 17° 179° (S) 12:35:04 437.505
PCSat 29 Aug 12:31:41 12:37:00 59° 299° (WNW) 12:42:22 145.827
AIST 2 29 Aug 12:38:28 12:42:33 78° 301° (WNW) 12:46:41 435.215
QB50P1 29 Aug 12:38:58 12:43:06 49° 260° (W) 12:47:16 145.935-145.965
DANDE 29 Aug 12:41:51 12:47:19 38° 266° (W) 12:54:03 436.750
Cosmos 2499 29 Aug 12:44:37 12:52:47 70° 93° (E) 13:00:20 435.465 / 435.565
POPSAT HIP 1 29 Aug 12:49:22 12:53:20 37° 261° (W) 12:57:20 437.405
GONETS M04 29 Aug 12:55:07 13:03:52 83° 277° (W) 13:12:44
ESTCUBE 1 29 Aug 12:57:00 13:01:34 88° 283° (WNW) 13:06:07 437.505/2401.250
UKube-1 29 Aug 12:57:17 13:00:41 22° 96° (E) 13:04:03 .
AISAT 29 Aug 12:57:45 13:02:05 49° 100° (E) 13:06:22 437.250
50 SAT 29 Aug 13:04:04 13:07:40 58° 100° (E) 13:11:17 437.505
AUBIESAT-1 29 Aug 13:12:35 13:16:23 47° 291° (WNW) 13:19:53 437.475
DUCHIFAT 1 29 Aug 13:15:40 13:18:55 21° 265° (W) 13:22:11 145.980
M-CUBED/EXP-1 PRIME 29 Aug 13:20:10 13:23:43 31° 294° (WNW) 13:27:01 437.505
QB50P2 29 Aug 13:21:57 13:24:29 15° 267° (W) 13:26:59 145.880/145.840
POLYITAN 1 29 Aug 13:24:30 13:26:59 15° 267° (W) 13:29:29 437.675
NANOSAT C BR1 29 Aug 13:31:46 13:33:51 13° 267° (W) 13:35:55 145.865
Gurwin Techsat 1B 29 Aug 13:36:42 13:40:26 20° 65° (ENE) 13:44:09 435.225
CUBEBUG 1 29 Aug 13:42:10 13:46:19 40° 287° (WNW) 13:50:26 437.445
VELOX 1 29 Aug 13:44:56 13:49:14 48° 287° (WNW) 13:53:30 145.980
Oscar 19 29 Aug 13:48:52 13:53:54 57° 73° (ENE) 13:58:59 437.125/150
SPROUT 29 Aug 13:50:39 13:54:56 82° 283° (WNW) 13:59:11 437.525
DX 1 29 Aug 13:55:43 14:00:01 55° 286° (WNW) 14:04:16 434.975-435.025
JAS-2 29 Aug 14:00:31 14:04:28 22° 267° (W) 14:08:34 435.910
TISAT 1 29 Aug 14:03:21 14:06:49 25° 96° (E) 14:10:15 437.305
BUGSAT 1 29 Aug 14:03:57 14:06:19 14° 267° (W) 14:08:40 437.445
ISS 29 Aug 14:05:00 14:05:54 11° 23° (NNE) 14:06:48 145.825
SRMSAT 29 Aug 14:08:23 14:11:52 16° 175° (S) 14:15:20 437.500
JUGNU 29 Aug 14:16:38 14:19:38 14° 189° (S) 14:22:37 437.505
O/OREOS (USA 219) 29 Aug 14:25:26 14:29:54 70° 291° (WNW) 14:34:24 437.305
SWISSCUBE 29 Aug 14:32:43 14:33:19 10° 91° (E) 14:33:55 437.505
UKube-1 29 Aug 14:33:00 14:36:39 27° 290° (WNW) 14:40:17 .
AO-85 29 Aug 14:35:06 14:39:09 46° 57° (ENE) 14:42:57 145.980
AISAT 29 Aug 14:35:53 14:38:05 14° 295° (WNW) 14:40:17 437.250
Cosmos 2499 29 Aug 14:40:48 14:46:22 20° 289° (WNW) 14:51:44 435.465 / 435.565
BEESAT 29 Aug 14:47:46 14:50:22 14° 93° (E) 14:52:57 436.000
AO-7 29 Aug 14:54:42 15:01:26 28° 59° (ENE) 15:08:09 29.400- 29.500
GONETS M04 29 Aug 14:57:39 15:02:03 14° 296° (WNW) 15:06:28
ITAMSAT 1 29 Aug 15:07:29 15:12:21 43° 71° (ENE) 15:17:13 435.822/435.867
Gurwin Techsat 1B 29 Aug 15:14:53 15:19:59 46° 260° (W) 15:25:06 435.225
Oscar 19 29 Aug 15:30:47 15:33:32 14° 268° (W) 15:36:17 437.125/150
ITUPSAT 1 29 Aug 15:34:52 15:39:29 47° 100° (E) 15:44:04 437.325
TISAT 1 29 Aug 15:39:03 15:42:20 22° 291° (WNW) 15:45:34 437.305
ISS 29 Aug 15:39:40 15:42:56 63° 40° (NE) 15:46:10 145.825
SRMSAT 29 Aug 15:56:51 16:00:16 16° 185° (S) 16:03:42 437.500
SWISSCUBE 29 Aug 16:06:46 16:11:30 67° 285° (WNW) 16:16:13 437.505
AO-85 29 Aug 16:17:40 16:19:00 11° 253° (WSW) 16:20:19 145.980
MOZHAYETS 4 29 Aug 16:20:01 16:23:24 20° 95° (E) 16:26:46
BEESAT 29 Aug 16:23:47 16:28:23 49° 287° (WNW) 16:32:57 436.000
AO-7 29 Aug 16:45:22 16:53:36 62° 256° (WSW) 17:01:53 29.400- 29.500
ITAMSAT 1 29 Aug 16:48:16 16:51:58 20° 266° (W) 16:55:39 435.822/435.867
YUBILEINY 29 Aug 16:58:11 17:05:13 26° 71° (ENE) 17:12:09 435.215
ITUPSAT 1 29 Aug 17:14:00 17:16:54 16° 294° (WNW) 17:19:47 437.325
BRITE-PL 29 Aug 17:26:48 17:30:28 21° 66° (ENE) 17:34:20 437.365/2234.400
KKS-1 29 Aug 17:35:18 17:39:46 75° 284° (WNW) 17:44:11 437.445
CUBESAT XI-V 29 Aug 17:45:28 17:49:02 21° 94° (E) 17:52:35 437.345
Cosmos 2504 29 Aug 17:50:53 17:54:53 15° 68° (ENE) 17:58:51 435.465 / 435.565
HORYU 2 29 Aug 17:52:21 17:56:49 77° 259° (W) 18:01:16 437.375
Cubesat XI-IV 29 Aug 17:52:34 17:56:17 20° 65° (ENE) 18:00:00 437.490
MOZHAYETS 4 29 Aug 17:56:29 18:00:34 33° 289° (WNW) 18:04:39
NOAA 15 29 Aug 17:57:20 18:01:43 28° 68° (ENE) 18:06:07 137.62
CUTE-I 29 Aug 18:03:07 18:07:22 25° 67° (ENE) 18:11:37 437.470
STARS 29 Aug 18:05:30 18:09:53 72° 285° (WNW) 18:14:13 437.465
DOVE 4 29 Aug 18:26:27 18:29:54 18° 66° (ENE) 18:33:25 437.250
GOMX 1 29 Aug 18:28:53 18:33:37 41° 72° (ENE) 18:38:39 467.674
Cosmos 2491 29 Aug 18:31:27 18:39:56 61° 91° (E) 18:48:30 435.465 / 435.565
BEESAT 2 29 Aug 18:33:16 18:36:01 18° 50° (NE) 18:38:46 435.950
HO-68 29 Aug 18:39:41 18:41:44 11° 54° (NE) 18:43:46 435.675
LilacSat-2 29 Aug 18:43:24 18:47:09 54° 75° (ENE) 18:50:53 437.200
BEESAT 3 29 Aug 18:46:16 18:50:06 45° 57° (ENE) 18:53:53 437.485
YUBILEINY 29 Aug 18:53:56 19:02:30 60° 269° (W) 19:10:58 435.215
NOAA 18 29 Aug 18:59:38 19:05:10 79° 75° (ENE) 19:10:43 137.9125
BRITE-PL 29 Aug 19:04:05 19:08:34 39° 264° (W) 19:13:26 437.365/2234.400
CUBESAT XI-V 29 Aug 19:22:13 19:26:25 33° 289° (WNW) 19:30:37 437.345
Cubesat XI-IV 29 Aug 19:30:49 19:35:57 48° 260° (W) 19:41:07 437.490
NOAA 15 29 Aug 19:36:43 19:41:20 31° 263° (W) 19:46:00 137.62
Cosmos 2504 29 Aug 19:41:51 19:49:01 76° 266° (W) 19:56:12 435.465 / 435.565
CUTE-I 29 Aug 19:42:17 19:47:10 36° 262° (W) 19:52:04 437.470
STRAND 1 29 Aug 19:56:52 20:01:05 26° 96° (E) 20:05:18 437.568
DOVE 4 29 Aug 20:02:06 20:07:06 51° 261° (W) 20:12:16 437.250
GOMX 1 29 Aug 20:08:03 20:11:50 21° 268° (W) 20:15:48 467.674
SEEDS 29 Aug 20:09:44 20:13:07 24° 71° (ENE) 20:16:29 437.485
BEESAT 2 29 Aug 20:10:15 20:13:57 36° 246° (WSW) 20:17:37 435.950
AIST 1 29 Aug 20:16:29 20:19:57 22° 76° (ENE) 20:23:22
HO-68 29 Aug 20:21:01 20:28:09 70° 72° (ENE) 20:35:18 435.675
BEESAT 3 29 Aug 20:25:45 20:27:19 12° 252° (WSW) 20:28:52 437.485
UWE-3 29 Aug 20:25:46 20:28:03 14° 67° (ENE) 20:30:20 435.000/436.395/437.385
CINEMA 3 29 Aug 20:26:46 20:31:47 83° 77° (ENE) 20:36:47 145.822/145.860
Cosmos 2491 29 Aug 20:30:21 20:37:16 26° 290° (WNW) 20:44:16 435.465 / 435.565
CUBEBUG 2 29 Aug 20:31:11 20:34:57 25° 70° (ENE) 20:38:40 437.445
AAUSAT CUBESAT 2 29 Aug 20:34:27 20:37:48 25° 71° (ENE) 20:41:10 437.432
CANX-2 29 Aug 20:34:53 20:39:05 87° 78° (ENE) 20:43:18 2200.000
ZACube-1 29 Aug 20:36:39 20:37:39 11° 65° (ENE) 20:38:40 437.345
CUTE 1.7 + AOD 2 29 Aug 20:40:32 20:44:44 88° 69° (ENE) 20:48:57 437.475
COMPASS 1 29 Aug 20:44:09 20:48:02 42° 74° (ENE) 20:51:56 437.405
NOAA 18 29 Aug 20:44:48 20:46:19 11° 269° (W) 20:47:52 137.9125
AIST 2 29 Aug 21:02:46 21:06:23 27° 54° (NE) 21:09:59 435.215
PRISM 29 Aug 21:17:08 21:19:47 16° 94° (E) 21:22:24 437.425
PCSat 29 Aug 21:22:24 21:27:45 58° 61° (ENE) 21:33:04 145.827
STRAND 1 29 Aug 21:35:44 21:40:13 32° 290° (WNW) 21:44:42 437.568
Oscar 11 29 Aug 21:35:49 21:39:59 51° 74° (ENE) 21:44:11 145.826/435.025
SEEDS 29 Aug 21:45:28 21:48:43 22° 265° (W) 21:51:59 437.485
FUNcube-1 29 Aug 21:46:11 21:50:36 65° 76° (ENE) 21:54:55 145.935
AIST 1 29 Aug 21:53:51 21:57:26 25° 271° (W) 22:01:00
DELFI C3 29 Aug 21:53:53 21:57:20 30° 72° (ENE) 22:00:48 145.870
UWE-3 29 Aug 21:59:38 22:04:05 50° 260° (W) 22:08:27 435.000/436.395/437.385
CUBEBUG 2 29 Aug 22:07:24 22:11:25 28° 263° (W) 22:15:22 437.445
ZACube-1 29 Aug 22:08:59 22:13:24 62° 259° (W) 22:17:45 437.345
AAUSAT CUBESAT 2 29 Aug 22:10:04 22:13:12 21° 265° (W) 22:16:22 437.432
HO-68 29 Aug 22:11:33 22:16:20 19° 267° (W) 22:21:10 435.675
COMPASS 1 29 Aug 22:22:02 22:23:45 12° 268° (W) 22:25:30 437.405
AUBIESAT-1 29 Aug 22:23:13 22:24:59 12° 60° (ENE) 22:26:45 437.475
M-CUBED/EXP-1 PRIME 29 Aug 22:29:26 22:32:32 18° 62° (ENE) 22:35:39 437.505
HUMSAT D 29 Aug 22:35:23 22:39:22 47° 74° (ENE) 22:43:20 437.325/437.525
Cosmos 2499 29 Aug 22:41:02 22:45:18 17° 69° (ENE) 22:49:36 435.465 / 435.565
AIST 2 29 Aug 22:41:23 22:44:43 23° 249° (WSW) 22:48:03 435.215
UNISAT 6 29 Aug 22:47:25 22:50:14 17° 94° (E) 22:53:01 437.425
PRISM 29 Aug 22:51:21 22:55:08 34° 288° (WNW) 22:58:54 437.425
O/OREOS (USA 219) 29 Aug 23:01:03 23:03:03 13° 57° (ENE) 23:05:04 437.305
SO-50 29 Aug 23:07:08 23:11:37 38° 113° (ESE) 23:16:04 436.795
PCSat 29 Aug 23:07:24 23:10:35 16° 256° (WSW) 23:13:45 145.827
GONETS M04 29 Aug 23:09:22 23:17:43 43° 76° (ENE) 23:25:58
Oscar 11 29 Aug 23:15:11 23:16:23 11° 268° (W) 23:17:35 145.826/435.025
ANTELSAT 29 Aug 23:23:13 23:27:19 45° 99° (E) 23:31:23 437.575/2403.000
DELFI C3 29 Aug 23:29:50 23:32:13 15° 266° (W) 23:34:37 145.870
50 SAT 29 Aug 23:39:33 23:41:47 16° 69° (ENE) 23:44:03 437.505
UKube-1 29 Aug 23:50:11 23:52:23 14° 66° (ENE) 23:54:35 .
AISAT 29 Aug 23:52:18 23:56:11 30° 71° (ENE) 00:00:06 437.250
TIGRISAT 29 Aug 23:53:21 23:57:37 81° 284° (WNW) 00:01:51 435.000
ESTCUBE 1 29 Aug 23:53:23 23:57:46 58° 74° (ENE) 00:02:11 437.505/2401.250
AUBIESAT-1 29 Aug 23:54:13 23:58:49 70° 254° (WSW) 00:03:27 437.475
M-CUBED/EXP-1 PRIME 30 Aug 00:02:08 00:06:37 47° 256° (WSW) 00:11:10 437.505
PHONESAT 2.4 30 Aug 00:04:21 00:05:59 14° 144° (SE) 00:07:39 2401.200-2431.200
DANDE 30 Aug 00:08:58 00:10:48 17° 91° (E) 00:12:43 436.750
HUMSAT D 30 Aug 00:13:53 00:15:11 11° 268° (W) 00:16:29 437.325/437.525
RS-15 30 Aug 00:21:01 00:30:30 32° 103° (ESE) 00:40:21 29.354- 29.394
UNISAT 6 30 Aug 00:23:10 00:27:00 33° 288° (WNW) 00:30:48 437.425
QB50P1 30 Aug 00:26:46 00:30:32 31° 97° (E) 00:34:15 145.935-145.965
CUSAT 1 30 Aug 00:30:32 00:33:07 28° 287° (WNW) 00:36:13 437.405
Cosmos 2499 30 Aug 00:32:01 00:39:01 71° 266° (W) 00:46:13 435.465 / 435.565
CUBEBUG 1 30 Aug 00:34:31 00:38:53 73° 258° (WSW) 00:43:19 437.445
POPSAT HIP 1 30 Aug 00:36:51 00:40:50 40° 99° (E) 00:44:46 437.405
O/OREOS (USA 219) 30 Aug 00:38:19 00:42:51 60° 253° (WSW) 00:47:22 437.305
VELOX 1 30 Aug 00:38:45 00:43:11 81° 258° (WSW) 00:47:39 145.980
SPROUT 30 Aug 00:40:56 00:45:06 50° 74° (ENE) 00:49:16 437.525
DX 1 30 Aug 00:47:49 00:52:10 86° 76° (ENE) 00:56:35 434.975-435.025
SO-50 30 Aug 00:48:13 00:52:10 24° 309° (NW) 00:56:06 436.795
TISAT 1 30 Aug 00:53:23 00:55:33 14° 66° (ENE) 00:57:43 437.305
